Regional Weather Roundup
Issued by NWS

Home | Current Version | Previous Version | Text Only | Print | Product List | Glossary Off
Versions: 1 2 3 4 5 6 7 8 9 10 11 12 13 14 15 16 17 18 19 20 21 22 23 24 25 26 27 28 29 30 31 32 33 34 35 36 37 38 39 40 41 42 43 44 45 46 47 48 49 50

000
ASUS43 KMKX 290821
RWRWI

WISCONSIN REGIONAL WEATHER ROUNDUP
NATIONAL WEATHER SERVICE MILWAUKEE/SULLIVAN WI
300 AM CDT MON AUG 29 2016

NOTE: "FAIR" INDICATES FEW OR NO CLOUDS BELOW 12,000 FEET WITH NO
SIGNIFICANT WEATHER AND/OR OBSTRUCTIONS TO VISIBILITY.

WIZ001-002-006>008-014>016-023>028-290900-
NORTHWEST WISCONSIN

CITY           SKY/WX    TMP DP  RH WIND       PRES   REMARKS
SUPERIOR ARPT  CLOUDY    64  64 100 CALM      30.11F
ASHLAND        CLOUDY    59  59 100 S5        30.15F FOG
HAYWARD        CLOUDY    64  61  90 CALM      30.17F
SIREN          CLOUDY    69  67  93 S7        30.14F
CUMBERLAND     CLOUDY    64  63  94 SE3       30.18R
RICE LAKE      CLOUDY    66  64  93 E5        30.19S
CHETEK         NOT AVBL
LADYSMITH      CLOUDY    65  64  95 SE5       30.21S
EAU CLAIRE     CLEAR     67  65  93 CALM      30.17R
MENOMONIE      CLEAR     65  64  99 SE6       30.18R
NEW RICHMOND   CLEAR     69  68  99 S7        30.15R
OSCEOLA        CLEAR     69  69 100 E3        30.16R
$$

WIZ003>005-009-010-017-018-290900-
NORTH CENTRAL WISCONSIN

CITY           SKY/WX    TMP DP  RH WIND       PRES   REMARKS
MANITOWISH WTR NOT AVBL
ARBOR VITAE    CLOUDY    63  61  95 S3        30.23S
WOODRUFF       CLOUDY    63  61  95 S3        30.23S
RHINELANDER    FOG       60  60 100 CALM      30.25R VSB 3/4
EAGLE RIVER    CLOUDY    60  60 100 S3        30.24R
LAND O LAKES   CLOUDY    54  54 100 CALM      30.25R
PHILLIPS       CLOUDY    63  63 100 CALM      30.21F
TOMAHAWK       FOG       59  58  97 CALM      30.24S VSB 3/4
MEDFORD        CLOUDY    64  64 100 CALM      30.23R
MERRILL        CLOUDY    57  57 100 CALM      30.25R FOG
$$

WIZ029-030-035-036-043>047-290900-
CENTRAL WISCONSIN

CITY           SKY/WX    TMP DP  RH WIND       PRES   REMARKS
WAUSAU         CLOUDY    64  63  96 E6        30.23R
MOSINEE        CLOUDY    63  63 100 SE5       30.24S
MARSHFIELD     PTCLDY    67  63  87 S6        30.22R
STEVENS POINT  CLOUDY    62  61  99 SE3       30.23S
WAUPACA        CLOUDY    67  67  99 CALM      30.23S
WAUTOMA        CLOUDY    64  64 100 CALM      30.24R
WISC RAPIDS    CLOUDY    68  67  96 SE5       30.24R
CAMP DOUGLAS   FOG       61  61 100 E6        30.21R VSB 3/4
$$

WIZ011>013-019>022-031-037>040-048>050-290900-
NORTHEAST WISCONSIN

CITY           SKY/WX    TMP DP  RH WIND       PRES   REMARKS
ANTIGO         MOCLDY    61  61 100 CALM      30.27R
SHAWANO        CLOUDY    67  64  88 S3        30.25R
OCONTO         NOT AVBL
STURGEON BAY   CLEAR     61  61 100 CALM      30.25S FOG
GREEN BAY      PTCLDY    61  61 100 CALM      30.24S
MANITOWOC      CLOUDY    57  57 100 CALM      30.25S FOG
APPLETON       CLOUDY    66  64  94 S3        30.22F
CLINTONVILLE   CLOUDY    63  63 100 CALM      30.24S FOG
OSHKOSH        CLOUDY    66  63  90 E3        30.23S
$$

WIZ032>034-041-042-053>061-290900-
SOUTHWEST WISCONSIN

CITY           SKY/WX    TMP DP  RH WIND       PRES   REMARKS
LA CROSSE      CLEAR     69  68  96 E3        30.17S
SPARTA         CLEAR     61  61 100 CALM      30.20S
VIROQUA        CLOUDY    65  65 100 CALM      30.21R VSB<1/4
BOSCOBEL       FOG       68  67  96 CALM      30.20R VSB 1/4
PRAIRIE DU CHI PTCLDY    67  66  94 E3        30.19R FOG
PLATTEVILLE    CLEAR     68  68 100 E5        30.21S
$$

WIZ056-057-062-063-064-067-068-290900-
SOUTH CENTRAL WISCONSIN

CITY           SKY/WX    TMP DP  RH WIND       PRES   REMARKS
REEDSBURG      NOT AVBL
BARABOO/DELLS  CLEAR     63  62  96 CALM      30.21S FOG
LONE ROCK      PTCLDY    66  65  96 CALM      30.20S
MINERAL POINT  CLEAR     68  68 100 SE3       30.21F
MADISON        MOCLDY    68  67  96 MISG      30.21S
MIDDLETON      CLOUDY    70  70 100 SE3       30.22S
WATERTOWN      PTCLDY    64  64 100 CALM      30.22S
MONROE         PTCLDY    68  66  94 SE5       30.22S
JANESVILLE     MOCLDY    68  68 100 E3        30.21S
$$

WIZ051-052-058>065-066-070>072-290900-
SOUTHEAST WISCONSIN

CITY           SKY/WX    TMP DP  RH WIND       PRES   REMARKS
MILWAUKEE      FOG       67  65  93 CALM      30.22S VSB 1/4
WAUKESHA       FOG       63  61  94 CALM      30.24S VSB 3/4
MILWAUKEE/TIMM PTCLDY    64  61  88 CALM      30.23S
RACINE         PTCLDY    65  63  93 CALM      30.24R
BURLINGTON     FOG       62  62  99 CALM      30.22S VSB 1/2
KENOSHA        FOG       65  64  97 NE5       30.22S VSB 1
FOND DU LAC    CLOUDY    67  64  90 S6        30.23F
SHEBOYGAN      FOG       58  57  97 CALM      30.24S VSB 1
WEST BEND      FOG       61  61 100 CALM      30.24S VSB 1/2
JUNEAU         MOCLDY    65  64  94 CALM      30.24S
$$

LSZ147-162-290900-
LAKE SUPERIOR

STATION/POSITION TIME  TEMP    WIND        PRES    WAVE
                       AIR SEA DIR/SP/G            HT/PER
                 (UTC) (F)     (DEG/KT/KT) (MB)    (FT/S)
W MID LAKE BUOY  0750   68 67  150/ 14/ 16 1019.9F   1/ 3
DEVILS ISLAND    0800   67     150/  4/  6 1020.5S
PORT WING        0700   65     170/  3/  5 1020.7
SAXON HARBOR     0740   64     200/  5/  7 1020.3F
$$

LMZ867-665-643>646-290900-
LAKE MICHIGAN

STATION/POSITION TIME  TEMP    WIND        PRES    WAVE
                       AIR SEA DIR/SP/G            HT/PER
                 (UTC) (F)     (DEG/KT/KT) (MB)    (FT/S)
CHAMBERS ISLAND  0740   62        CALM     1023.7F
S GREEN BAY BUOY 0530   69 72  180/  6/  8 1023.1
N MID LAKE BUOY  0750   70 71  130/  8/  8 1023.7R   0
NORTHPORT PIER   0700   66     180/  2/  4 1023.7S
KEWAUNEE LAKESHO 0700   60     300/  2/  3 1023.2F
SHEBOYGAN LAKESH 0800   63      30/  4/  5 1023.6R
PORT WASHINGTON  0740   64     290/  2/  3 1024.4S
ATWATER BUOY     0800   65      10/  6/  8   N/A
MILWAUKEE LAKESH 0710   67      30/  5/  6   N/A
S MID LAKE BUOY  0750   73 75   90/  6/  8 1022.7F   1
KENOSHA   LAKESH 0800   70      10/  6/  6 1023.0R
$$

TC  - TEMPERATURE IN CELSIUS
VSB - VISIBILITY IN STATUTE MILES
WCI - WIND CHILL INDEX
HX  - HEAT INDEX





USA.gov is the U.S. government's official web portal to all federal, state and local government web resources and services.